Location: Kalberh�ni
(46.4610°N, 7.2453°E)
Time: 07:01:45
(UTC+00:00)

Cosmos 1777 Rocket - Pass Details

Date: 20 June 2021
Orbit: 757 x 776 km, 74.0° (Epoch: 28 July)

Event Time Altitude Azimuth Distance (km) Brightness Sun altitude
Rises 23:13:44 0° 334° (NNW) 3,261 8.5 -20.0°
Reaches altitude 10° 23:16:09 10° 329° (NNW) 2,332 7.4 -20.0°
Maximum altitude 23:21:17 53° 254° (WSW) 955 4.3 -20.1°
Enters shadow 23:22:56 38° 203° (SSW) 1,172 4.5 -20.1°
